SATCOM 3R

Satellite information

Favourite Embed

Satellite Type and Status

PAYLOADIN ORBIT

Key statistics

Satellite SATCOM 3R at a glance.

Uptime

16097

Days in orbit

Revolutions

≈ 1.0

Per day

Orbit

OTHER

Other

Inclination

12.3

Latest

Satellite identification and parameters

Extended collection of information and parameters for SATCOM 3R.

Object identification

Identified? True

Debris? False

Object name: SATCOM 3R

International designator: 1981-114A

Object number (NORAD): 12967

Object ID (CCSDS): 12967

Country: UNITED STATES OF AMERICA (US)

Current information (Y/N): Y

RCS size: LARGE

Orbital parameters

Period: 1438.2 minutes

Inclination: 12.3043 deg

SMA: 42205.878 km

Apoapsis: 35857.145 km

Periapsis: 35798.341 km

RAAN: 333.1593 deg

Eccentricy: 0.00069664

Argument of periapsis: 298.2949 deg

Mean anomaly: 75.3052 deg

Mean motion: 1.00125191 rev/day

Mean motion (dot): -0.0000027 rev/day2

B* drag term: 0.0 1/REarth

Two-line elements (TLE)

Creation date: Dec. 16, 2025, 2:19 a.m.

Reference frame: TEME

Reference center: EARTH

Epoch: Dec. 15, 2025, 8:03 p.m. UTC

TLE line 0: 0 SATCOM 3R

TLE line 1: 1 12967U 81114A 25349.83547955 -.00000270 00000-0 00000-0 0 9999

TLE line 2: 2 12967 12.3043 333.1593 0006966 298.2949 75.3052 1.00125191126233

Live tracking on map

Real-time ground track for satellite SATCOM 3R.

In-orbit conjunctions

A list of the most updated potential collisions computed for object SATCOM 3R.

Target Orbit TCA Probability of collision Miss distance Type
COSMOS 2085 OTHER 2025-05-18 17:40:16 TBA 4982.0 (m) PAYLOAD

Associated space launch

First generation geostationary communication satellite built for RCA Americom

SATCOM 3R was lifted into orbit during the mission ‘Delta 3910/PAM | Satcom 3R’, on board a Delta 3910/PAM space rocket.

The launch took place on Nov. 20, 1981, 1:37 a.m. from Space Launch Complex 17A.

For more information about the launch, click the button.

Launch to space Delta 3910/PAM | Satcom 3R
Delta 3910/PAM | Satcom 3R

Agency: N/A

Status: Launch Successful

Launch date: Nov. 20, 1981, 1:37 a.m. UTC

Rocket: Delta 3910/PAM

Launch pad: Space Launch Complex 17A

Location: Cape Canaveral SFS, FL, USA

...

Latest news about this satellite

There are no fresh news available about this satellite. Check back as we update our databases every day.


Newsletter sign-up

Weekly statistics, charts and insights to help you stay on top of the space industry.